| time (UTC) | temp F | wind direction | speed knots | gust knots | rain 1hr in | rain 24hr in | rain mn in | humidity % | barometer mb |
| 20260906212528 | 101 | 173 | 4.3 | 7.0 | 0.00 | 0.00 | 0.00 | 29 | |
| 20260906211528 | 102 | 143 | 3.5 | 7.8 | 0.00 | 0.00 | 0.00 | 29 | |
| 20260906210546 | 101 | 139 | 3.5 | 7.0 | 0.00 | 0.00 | 0.00 | 30 | |
| 20260906205527 | 102 | 196 | 4.3 | 5.2 | 0.00 | 0.00 | 0.00 | 30 | |
| 20260906204526 | 100 | 141 | 6.1 | 8.7 | 0.00 | 0.00 | 0.00 | 31 | |
| 20260906203525 | 101 | 118 | 4.3 | 7.8 | 0.00 | 0.00 | 0.00 | 32 | |
| 20260906202525 | 99 | 92 | 4.3 | 6.1 | 0.00 | 0.00 | 0.00 | 33 | |
| 20260906201526 | 99 | 131 | 4.3 | 7.0 | 0.00 | 0.00 | 0.00 | 35 | |
| 20260906200526 | 98 | 141 | 3.5 | 5.2 | 0.00 | 0.00 | 0.00 | 35 | |
| 20260906195527 | 98 | 157 | 3.5 | 5.2 | 0.00 | 0.00 | 0.00 | 36 | |
| 20260906194605 | 99 | 150 | 5.2 | 7.8 | 0.00 | 0.00 | 0.00 | 35 | |
| 20260906193527 | 100 | 160 | 5.2 | 8.7 | 0.00 | 0.00 | 0.00 | 34 | |
| 20260906192528 | 100 | 117 | 3.5 | 7.0 | 0.00 | 0.00 | 0.00 | 35 | |
| 20260906191525 | 100 | 105 | 2.6 | 5.2 | 0.00 | 0.00 | 0.00 | 36 | |
| 20260906190526 | 98 | 135 | 4.3 | 6.1 | 0.00 | 0.00 | 0.00 | 36 | |
| 20260906185549 | 98 | 173 | 2.6 | 6.1 | 0.00 | 0.00 | 0.00 | 37 | |
| 20260906184546 | 97 | 167 | 5.2 | 8.7 | 0.00 | 0.00 | 0.00 | 38 | |
| 20260906183545 | 97 | 130 | 5.2 | 6.1 | 0.00 | 0.00 | 0.00 | 39 | |
| 20260906182526 | 98 | 164 | 4.3 | 6.1 | 0.00 | 0.00 | 0.00 | 37 | |
| 20260906181606 | 98 | 115 | 2.6 | 5.2 | 0.00 | 0.00 | 0.00 | 37 | |
| 20260906180526 | 98 | 125 | 4.3 | 6.1 | 0.00 | 0.00 | 0.00 | 38 | |
| 20260906175525 | 97 | 160 | 3.5 | 5.2 | 0.00 | 0.00 | 0.00 | 39 | |
| 20260906174527 | 96 | 136 | 4.3 | 6.1 | 0.00 | 0.00 | 0.00 | 40 | |
| 20260906173525 | 96 | 151 | 4.3 | 6.1 | 0.00 | 0.00 | 0.00 | 40 | |
| 20260906172527 | 96 | 151 | 5.2 | 7.8 | 0.00 | 0.00 | 0.00 | 40 | |
| 20260906171525 | 96 | 109 | 5.2 | 7.8 | 0.00 | 0.00 | 0.00 | 39 | |
| 20260906170528 | 96 | 165 | 4.3 | 7.8 | 0.00 | 0.00 | 0.00 | 40 | |
| 20260906165525 | 96 | 153 | 5.2 | 7.8 | 0.00 | 0.00 | 0.00 | 40 | |
| 20260906164525 | 97 | 150 | 4.3 | 7.0 | 0.00 | 0.00 | 0.00 | 39 | |
| 20260906163527 | 97 | 163 | 3.5 | 5.2 | 0.00 | 0.00 | 0.00 | 40 | |
| 20260906162525 | 96 | 166 | 5.2 | 7.0 | 0.00 | 0.00 | 0.00 | 40 | |
| 20260906161525 | 96 | 169 | 3.5 | 4.3 | 0.00 | 0.00 | 0.00 | 40 | |
| 20260906160526 | 95 | 151 | 4.3 | 6.1 | 0.00 | 0.00 | 0.00 | 41 | |
| 20260906155525 | 97 | 152 | 3.5 | 5.2 | 0.00 | 0.00 | 0.00 | 39 | |
| 20260906154525 | 98 | 172 | 1.7 | 3.5 | 0.00 | 0.00 | 0.00 | 38 | |
| 20260906153628 | 97 | 232 | 2.6 | 2.6 | 0.00 | 0.00 | 0.00 | 39 | |
| 20260906152525 | 97 | 340 | 1.7 | 2.6 | 0.00 | 0.00 | 0.00 | 40 | |
| 20260906151529 | 95 | 222 | 1.7 | 2.6 | 0.00 | 0.00 | 0.00 | 42 | |
| 20260906150525 | 94 | 283 | 0.9 | 1.7 | 0.00 | 0.00 | 0.00 | 44 | |
| 20260906145528 | 93 | 221 | 1.7 | 2.6 | 0.00 | 0.00 | 0.00 | 46 | |
| 20260906144525 | 92 | 200 | 1.7 | 2.6 | 0.00 | 0.00 | 0.00 | 47 | |
| 20260906143525 | 91 | 217 | 1.7 | 2.6 | 0.00 | 0.00 | 0.00 | 48 | |
| 20260906142525 | 89 | 169 | 1.7 | 1.7 | 0.00 | 0.00 | 0.00 | 50 | |
| 20260906141529 | 88 | 182 | 1.7 | 2.6 | 0.00 | 0.00 | 0.00 | 52 | |
| 20260906140545 | 86 | 133 | 1.7 | 2.6 | 0.00 | 0.00 | 0.00 | 54 | |
| 20260906135525 | 84 | 135 | 1.7 | 1.7 | 0.00 | 0.00 | 0.00 | 57 | |
| 20260906134526 | 82 | 158 | 1.7 | 2.6 | 0.00 | 0.00 | 0.00 | 60 | |
| 20260906133525 | 81 | 140 | 2.6 | 2.6 | 0.00 | 0.00 | 0.00 | 61 | |
| 20260906132546 | 80 | 144 | 2.6 | 3.5 | 0.00 | 0.00 | 0.00 | 62 | |
| 20260906131545 | 79 | 146 | 2.6 | 3.5 | 0.00 | 0.00 | 0.00 | 63 | |
| 20260906130527 | 79 | 143 | 1.7 | 2.6 | 0.00 | 0.00 | 0.00 | 64 | |
| 20260906125525 | 78 | 144 | 1.7 | 1.7 | 0.00 | 0.00 | 0.00 | 64 | |
| 20260906124528 | 77 | 126 | 1.7 | 2.6 | 0.00 | 0.00 | 0.00 | 65 | |
| 20260906123526 | 77 | 118 | 1.7 | 1.7 | 0.00 | 0.00 | 0.00 | 65 | |
| 20260906122525 | 77 | 121 | 1.7 | 2.6 | 0.00 | 0.00 | 0.00 | 65 | |
| 20260906121525 | 77 | 118 | 1.7 | 1.7 | 0.00 | 0.00 | 0.00 | 65 | |
| 20260906120525 | 77 | 100 | 1.7 | 2.6 | 0.00 | 0.00 | 0.00 | 64 | |
| 20260906115547 | 78 | 112 | 1.7 | 1.7 | 0.00 | 0.00 | 0.00 | 64 | |
| 20260906114550 | 78 | 108 | 1.7 | 1.7 | 0.00 | 0.00 | 0.00 | 63 | |
| 20260906113532 | 78 | 134 | 0.9 | 1.7 | 0.00 | 0.00 | 0.00 | 64 | |
| 20260906112526 | 78 | 41 | 0.9 | 0.9 | 0.00 | 0.00 | 0.00 | 63 | |
| 20260906111526 | 78 | 80 | 1.7 | 2.6 | 0.00 | 0.00 | 0.00 | 63 | |
| 20260906110525 | 79 | 99 | 1.7 | 2.6 | 0.00 | 0.00 | 0.00 | 62 | |
| 20260906105527 | 79 | 104 | 1.7 | 1.7 | 0.00 | 0.00 | 0.00 | 63 | |
| 20260906104525 | 79 | 123 | 1.7 | 2.6 | 0.00 | 0.00 | 0.00 | 62 | |
| 20260906103529 | 79 | 121 | 1.7 | 2.6 | 0.00 | 0.00 | 0.00 | 63 | |
| 20260906102526 | 79 | 106 | 1.7 | 1.7 | 0.00 | 0.00 | 0.00 | 63 | |
| 20260906101545 | 80 | 22 | 1.7 | 1.7 | 0.00 | 0.00 | 0.00 | 62 | |
| 20260906100525 | 80 | 236 | 2.6 | 2.6 | 0.00 | 0.00 | 0.00 | 63 | |
| 20260906095525 | 80 | 211 | 1.7 | 1.7 | 0.00 | 0.00 | 0.00 | 61 | |
| 20260906094525 | 80 | 146 | 1.7 | 1.7 | 0.00 | 0.00 | 0.00 | 61 | |
| 20260906093530 | 80 | 245 | 1.7 | 1.7 | 0.00 | 0.00 | 0.00 | 61 | |
| 20260906092526 | 79 | 304 | 1.7 | 1.7 | 0.00 | 0.00 | 0.00 | 62 | |
| 20260906091525 | 79 | 359 | 1.7 | 2.6 | 0.00 | 0.00 | 0.00 | 61 | |
| 20260906090526 | 81 | 46 | 1.7 | 2.6 | 0.00 | 0.00 | 0.00 | 59 | |
| 20260906085545 | 81 | 238 | 1.7 | 2.6 | 0.00 | 0.00 | 0.00 | 58 | |
| 20260906084527 | 81 | 212 | 2.6 | 4.3 | 0.00 | 0.00 | 0.00 | 57 | |
| 20260906083525 | 81 | 212 | 2.6 | 3.5 | 0.00 | 0.00 | 0.00 | 57 | |
| 20260906082527 | 81 | 210 | 2.6 | 4.3 | 0.00 | 0.00 | 0.00 | 57 | |
| 20260906081525 | 81 | 181 | 2.6 | 3.5 | 0.00 | 0.00 | 0.00 | 57 | |
| 20260906080525 | 81 | 164 | 1.7 | 2.6 | 0.00 | 0.00 | 0.00 | 55 | |
| 20260906075528 | 82 | 152 | 2.6 | 2.6 | 0.00 | 0.00 | 0.00 | 54 | |
| 20260906074529 | 82 | 157 | 2.6 | 3.5 | 0.00 | 0.00 | 0.00 | 53 | |
| 20260906073525 | 83 | 164 | 2.6 | 3.5 | 0.00 | 0.00 | 0.00 | 53 | |
| 20260906072526 | 83 | 166 | 2.6 | 3.5 | 0.00 | 0.00 | 0.00 | 52 | |
| 20260906071547 | 83 | 169 | 1.7 | 2.6 | 0.00 | 0.00 | 0.00 | 52 | |
| 20260906070525 | 83 | 175 | 1.7 | 2.6 | 0.00 | 0.00 | 0.00 | 52 | |
| 20260906065606 | 84 | 163 | 2.6 | 3.5 | 0.00 | 0.00 | 0.00 | 52 | |
| 20260906064546 | 84 | 158 | 2.6 | 3.5 | 0.00 | 0.00 | 0.00 | 51 | |
| 20260906063526 | 84 | 164 | 3.5 | 4.3 | 0.00 | 0.00 | 0.00 | 50 | |
| 20260906062525 | 85 | 173 | 3.5 | 4.3 | 0.00 | 0.00 | 0.00 | 50 | |
| 20260906061548 | 85 | 165 | 4.3 | 5.2 | 0.00 | 0.00 | 0.00 | 49 | |
| 20260906060525 | 85 | 163 | 3.5 | 5.2 | 0.00 | 0.00 | 0.00 | 50 | |
| 20260906055549 | 85 | 162 | 3.5 | 4.3 | 0.00 | 0.00 | 0.00 | 50 | |
| 20260906054525 | 85 | 170 | 3.5 | 4.3 | 0.00 | 0.00 | 0.00 | 51 | |
| 20260906053529 | 85 | 167 | 3.5 | 4.3 | 0.00 | 0.00 | 0.00 | 50 | |
| 20260906052525 | 85 | 166 | 3.5 | 5.2 | 0.00 | 0.00 | 0.00 | 50 | |
| 20260906051525 | 85 | 159 | 3.5 | 4.3 | 0.00 | 0.00 | 0.00 | 50 | |
| 20260906050545 | 85 | 161 | 4.3 | 4.3 | 0.00 | 0.00 | 0.00 | 50 | |
| 20260906045527 | 85 | 165 | 3.5 | 5.2 | 0.00 | 0.00 | 0.00 | 50 | |
| 20260906044526 | 85 | 160 | 3.5 | 3.5 | 0.00 | 0.00 | 0.00 | 49 | |
| 20260906043525 | 85 | 160 | 2.6 | 2.6 | 0.00 | 0.00 | 0.00 | 49 | |
| 20260906042547 | 86 | 144 | 2.6 | 2.6 | 0.00 | 0.00 | 0.00 | 49 | |
| 20260906041545 | 86 | 141 | 1.7 | 2.6 | 0.00 | 0.00 | 0.00 | 48 | |
| 20260906040548 | 86 | 151 | 1.7 | 2.6 | 0.00 | 0.00 | 0.00 | 48 | |
| 20260906035525 | 86 | 154 | 1.7 | 2.6 | 0.00 | 0.00 | 0.00 | 48 | |
| 20260906034528 | 86 | 154 | 1.7 | 2.6 | 0.00 | 0.00 | 0.00 | 47 | |
| 20260906033525 | 87 | 154 | 1.7 | 2.6 | 0.00 | 0.00 | 0.00 | 47 | |
| 20260906032525 | 87 | 141 | 1.7 | 1.7 | 0.00 | 0.00 | 0.00 | 46 | |
| 20260906031525 | 88 | 135 | 1.7 | 2.6 | 0.00 | 0.00 | 0.00 | 46 | |
| 20260906030525 | 88 | 143 | 2.6 | 3.5 | 0.00 | 0.00 | 0.00 | 45 | |
| 20260906025525 | 88 | 137 | 2.6 | 3.5 | 0.00 | 0.00 | 0.00 | 44 | |
| 20260906024525 | 89 | 138 | 3.5 | 4.3 | 0.00 | 0.00 | 0.00 | 44 | |
| 20260906023529 | 89 | 145 | 2.6 | 3.5 | 0.00 | 0.00 | 0.00 | 44 | |
| 20260906022525 | 89 | 145 | 2.6 | 2.6 | 0.00 | 0.00 | 0.00 | 43 | |
| 20260906021526 | 89 | 137 | 2.6 | 2.6 | 0.00 | 0.00 | 0.00 | 43 | |
| 20260906020546 | 90 | 138 | 2.6 | 3.5 | 0.00 | 0.00 | 0.00 | 42 | |
| 20260906015527 | 90 | 140 | 2.6 | 3.5 | 0.00 | 0.00 | 0.00 | 41 | |
| 20260906014525 | 91 | 115 | 2.6 | 3.5 | 0.00 | 0.00 | 0.00 | 40 | |
| 20260906013527 | 92 | 149 | 2.6 | 3.5 | 0.00 | 0.00 | 0.00 | 39 | |
| 20260906012525 | 92 | 143 | 2.6 | 3.5 | 0.00 | 0.00 | 0.00 | 39 | |
| 20260906011524 | 92 | 144 | 3.5 | 4.3 | 0.00 | 0.00 | 0.00 | 38 | |
| 20260906010525 | 93 | 139 | 2.6 | 2.6 | 0.00 | 0.00 | 0.00 | 37 | |
| 20260906005525 | 94 | 155 | 2.6 | 2.6 | 0.00 | 0.00 | 0.00 | 36 | |
| 20260906004525 | 95 | 142 | 3.5 | 4.3 | 0.00 | 0.00 | 0.00 | 35 | |
| 20260906003525 | 95 | 154 | 4.3 | 6.1 | 0.00 | 0.00 | 0.00 | 35 | |
| 20260906002525 | 96 | 150 | 4.3 | 5.2 | 0.00 | 0.00 | 0.00 | 34 | |
| 20260906001528 | 97 | 146 | 4.3 | 6.1 | 0.00 | 0.00 | 0.00 | 34 | |
| 20260906000526 | 97 | 134 | 4.3 | 7.0 | 0.00 | 0.00 | 0.00 | 34 | |
| 20260905235525 | 97 | 163 | 4.3 | 7.0 | 0.00 | 0.00 | 0.00 | 33 | |
| 20260905234547 | 97 | 169 | 5.2 | 7.0 | 0.00 | 0.00 | 0.00 | 33 | |
| 20260905233525 | 97 | 151 | 5.2 | 7.0 | 0.00 | 0.00 | 0.00 | 33 | |
| 20260905232530 | 98 | 129 | 5.2 | 7.0 | 0.00 | 0.00 | 0.00 | 33 | |
| 20260905231525 | 98 | 142 | 5.2 | 7.0 | 0.00 | 0.00 | 0.00 | 33 | |
| 20260905230525 | 98 | 157 | 6.1 | 7.8 | 0.00 | 0.00 | 0.00 | 32 | |
| 20260905225525 | 98 | 162 | 5.2 | 6.1 | 0.00 | 0.00 | 0.00 | 32 | |
| 20260905224525 | 99 | 157 | 5.2 | 7.0 | 0.00 | 0.00 | 0.00 | 32 | |
| 20260905223525 | 99 | 129 | 3.5 | 6.1 | 0.00 | 0.00 | 0.00 | 32 | |
| 20260905222525 | 100 | 152 | 5.2 | 7.0 | 0.00 | 0.00 | 0.00 | 32 | |
| 20260905221535 | 99 | 163 | 5.2 | 7.8 | 0.00 | 0.00 | 0.00 | 31 | |
| 20260905220525 | 100 | 174 | 3.5 | 7.0 | 0.00 | 0.00 | 0.00 | 31 | |
| 20260905215527 | 99 | 165 | 5.2 | 7.0 | 0.00 | 0.00 | 0.00 | 33 | |
| 20260905214525 | 99 | 185 | 2.6 | 5.2 | 0.00 | 0.00 | 0.00 | 33 | |
| 20260905213546 | 99 | 156 | 5.2 | 7.8 | 0.00 | 0.00 | 0.00 | 33 |